Change the Weather History Date:

Saturday, November 12, 2011

  Actual Average Record
Temperature  
Mean Temperature 50 °F 41 °F  
Max Temperature 71 °F 54 °F 78 °F (1989)
Min Temperature 29 °F 27 °F -2 °F (1911)
Degree Days  
Heating Degree Days 15 24  
Month to date heating degree days 292 260  
Since 1 July heating degree days 761 800  
Cooling Degree Days 0 0  
Month to date cooling degree days 0 0  
Year to date cooling degree days 1116 941  
Moisture  
Dew Point 21 °F    
Average Humidity 40    
Maximum Humidity 69    
Minimum Humidity 11    
Precipitation  
Precipitation 0.00 in 0.02 in 0.45 in (1912)
Month to date precipitation 0.28 0.34  
Year to date precipitation 18.89 18.83  
Snow  
Snow 0.00 in 0.10 in - ()
Month to date snowfall 3.1 1.5  
Since 1 July snowfall 3.3 4.1  
Since 1 September snowfall 3.3 4.1  
Snow Depth 0.00 in    
Sea Level Pressure  
Sea Level Pressure 29.47 in    
Wind  
Wind Speed 13 mph (WSW)    
Max Wind Speed 22 mph    
Max Gust Speed 30 mph    
Visibility 10 miles    
Events      
T = Trace of Precipitation, MM = Missing Value Source: NWS Daily Summary

Daily Weather History Graph

Daily Weather History Graph

Search for Another Location

Airport or City:

Trip Planner

Search our weather history database for the weather conditions in past years. The results will help you decide how hot, cold, wet, or windy it might be!

Date:

Astronomy

Nov. 12, 2011 Rise Set
Actual Time 6:26 AM MST 4:34 PM MST
Civil Twilight 5:58 AM MST 5:02 PM MST
Nautical Twilight 5:26 AM MST 5:35 PM MST
Astronomical Twilight 4:54 AM MST 6:06 PM MST
Moon 5:52 PM MST (11/12) 8:10 AM MST (11/12)
Length of Visible Light 11h 04m
Length of Day
10h 07m
Waning Gibbous, 97% of the Moon is Illuminated
Nov 12
Waning Gibbous
Nov 18
Last Quarter
Nov 24
New
Dec 2
First Quarter
Dec 10
Full

Hourly Weather History & Observations

Time (MST) Temp. Windchill Dew Point Humidity Pressure Visibility Wind Dir Wind Speed Gust Speed Precip Events Conditions
12:53 AM 41.0 °F 32.8 °F 24.1 °F 51% 29.55 in 10.0 mi SSW 16.1 mph - N/A   Clear
1:53 AM 41.0 °F 33.9 °F 24.1 °F 51% 29.51 in 10.0 mi SW 12.7 mph - N/A   Clear
2:53 AM 34.0 °F 27.2 °F 24.1 °F 67% 29.49 in 10.0 mi WSW 8.1 mph - N/A   Clear
3:53 AM 34.0 °F 26.0 °F 23.0 °F 64% 29.52 in 10.0 mi West 10.4 mph - N/A   Clear
4:53 AM 34.0 °F 26.6 °F 23.0 °F 64% 29.54 in 10.0 mi WNW 9.2 mph - N/A   Clear
5:53 AM 33.1 °F 25.5 °F 19.9 °F 59% 29.54 in 10.0 mi WNW 9.2 mph - N/A   Clear
6:53 AM 30.0 °F 23.2 °F 19.0 °F 64% 29.56 in 10.0 mi West 6.9 mph - N/A   Clear
7:53 AM 42.1 °F 35.7 °F 19.9 °F 41% 29.57 in 10.0 mi WNW 11.5 mph - N/A   Clear
8:53 AM 54.0 °F - 17.1 °F 23% 29.55 in 10.0 mi WNW 12.7 mph - N/A   Clear
9:53 AM 59.0 °F - 10.9 °F 15% 29.52 in 10.0 mi WSW 5.8 mph - N/A   Clear
10:53 AM 64.0 °F - 10.0 °F 12% 29.51 in 10.0 mi WSW 10.4 mph - N/A   Clear
11:53 AM 69.1 °F - 12.9 °F 11% 29.47 in 10.0 mi WSW 13.8 mph 23.0 mph N/A   Clear
12:53 PM 70.0 °F - 17.1 °F 13% 29.44 in 10.0 mi WSW 13.8 mph 23.0 mph N/A   Clear
1:53 PM 71.1 °F - 19.9 °F 14% 29.42 in 10.0 mi WSW 15.0 mph 23.0 mph N/A   Clear
2:53 PM 70.0 °F - 21.9 °F 16% 29.44 in 10.0 mi WSW 11.5 mph - N/A   Clear
3:53 PM 66.0 °F - 25.0 °F 21% 29.43 in 10.0 mi SW 8.1 mph - N/A   Clear
4:53 PM 62.1 °F - 23.0 °F 22% 29.43 in 10.0 mi SSW 11.5 mph - N/A   Clear
5:53 PM 60.1 °F - 23.0 °F 24% 29.43 in 10.0 mi SW 17.3 mph 26.5 mph N/A   Clear
6:53 PM 54.0 °F - 24.1 °F 31% 29.45 in 10.0 mi SW 16.1 mph - N/A   Clear
7:53 PM 51.1 °F - 24.1 °F 35% 29.42 in 10.0 mi WSW 16.1 mph - N/A   Clear
8:53 PM 48.9 °F - 23.0 °F 36% 29.37 in 10.0 mi WSW 15.0 mph - N/A   Clear
9:53 PM 52.0 °F - 23.0 °F 32% 29.35 in 10.0 mi WSW 17.3 mph - N/A   Clear
10:50 PM 46.4 °F 40.7 °F 24.8 °F 43% 29.45 in 10.0 mi West 12.7 mph 25.3 mph N/A   Clear
10:53 PM 46.9 °F - 24.1 °F 41% 29.39 in 10.0 mi NNW 15.0 mph - N/A   Clear
11:00 PM 44.6 °F 39.2 °F 24.8 °F 46% 29.46 in 10.0 mi NW 10.4 mph - N/A   Clear
11:53 PM 46.9 °F - 26.1 °F 44% 29.43 in 10.0 mi NW 20.7 mph 29.9 mph N/A   Clear